[[{"header":{"parameterUnit":"m.s-1","parameterCategory":1,"la1":30.2991,"la2":30.254,"lo1":-89.0895,"lo2":-89.0444,"dy":0.0017,"dx":0.0017,"nx":28,"ny":28,"refTime":"2024-05-03T21:00:00:Z","depth":0,"parameterNumber":2,"parameterNumberName":"U-component_of_WINDS"},"data":[0,0,0,0,0,0,0,0,0,0,0,0,0,0,0,0,0,0,0,0,0,0,0,0,0,0,0,0,0,0,0,0,0,0,0,0,0,0,0,0,0,0,0,0,0,0,0,0,0,0,0,0,0,0,0,0,0,0,0.8781,0.8779,0,0.8643,0.8642,0.864,0.8523,0.8522,0.8521,0.8519,0.8375,0.8372,0.837,0,0,0,0,0,0,0,0,0,0,0,0,0,0.8938,0.8936,0.8781,0.8779,0.8777,0.8644,0.8642,0.864,0.8523,0.8522,0.852,0.8519,0.8376,0.8373,0.837,0,0,0,0,0,0,0,0,0,0,0,0,0,0.8842,0.8935,0.8781,0.8703,0.8695,0.8644,0.8642,0.8639,0.8524,0.8522,0.852,0.8518,0.8377,0.8373,0.8369,0.8383,0,0,0.8357,0.8355,0,0,0,0,0,0,0,0,0.8848,0.8837,0.8716,0.8708,0.8699,0.8598,0.8644,0.8553,0.8524,0.8589,0.8519,0.8517,0.8451,0.8441,0.8419,0.8376,0.837,0.8357,0.8354,0.8353,0.8351,0,0,0,0,0,0,0,0.8855,0.8842,0.8726,0.8715,0.8704,0.8674,0.8658,0.8626,0.8532,0.8583,0.8574,0.856,0.8446,0.8423,0.8415,0.8368,0.8357,0.8353,0.8351,0.8349,0.833,0.8331,0,0,0,0,0,0,0.8874,0.8848,0.873,0.8722,0.877,0.8673,0.8655,0.8633,0.8532,0.8515,0.8561,0.8555,0.8431,0.8419,0.8409,0.8419,0.8353,0.8349,0.8347,0.8328,0.833,0.8332,0,0,0,0,0,0,0.8878,0.8864,0.8736,0.8783,0.8764,0.8672,0.8648,0.8631,0.8608,0.8516,0.8498,0.8556,0.8429,0.8415,0.8391,0.8412,0.8347,0.8343,0.8326,0.8329,0.8331,0.8439,0,0,0,0,0,0,0.8883,0.8867,0.8872,0.8784,0.8762,0.8722,0.8649,0.863,0.8602,0.8592,0.8506,0.849,0.8426,0.8397,0.8387,0.8406,0.834,0.8323,0.8327,0.833,0.8433,0.8445,0.8456,0,0,0,0,0,0.8889,0.8907,0.8873,0.8859,0.8767,0.8723,0.871,0.8638,0.8605,0.8609,0.8549,0.8493,0.8412,0.8396,0.8383,0.8401,0.8322,0.8326,0.833,0.8428,0.8443,0.8456,0,0,0,0,0,0,0.8998,0.8894,0.8855,0.8845,0.8794,0.8704,0.8706,0.8656,0.8612,0.8604,0.8515,0.8496,0.8482,0.8439,0.8423,0.8409,0.8359,0.8361,0.8438,0.8451,0.8463,0.8473,0.8337,0,0,0,0,0,0.9022,0.8996,0.8906,0.8906,0.8882,0.8799,0.8777,0.8726,0.8669,0.8646,0.8585,0.853,0.8492,0.8469,0.8429,0.8426,0.8405,0.8432,0.8444,0.8453,0.8456,0.8451,0.8461,0.8346,0.8346,0.8346,0,0,0.9069,0.9009,0.8998,0.8927,0.8881,0.8855,0.8782,0.8758,0.8737,0.8642,0.8616,0.8569,0.8502,0.8489,0.848,0.8453,0.8483,0.8458,0.8467,0.8464,0.8456,0.8467,0.8477,0.8349,0.8348,0.8348,0,0,0.9143,0.9095,0.909,0.9047,0.8979,0.8923,0.8923,0.8839,0.8805,0.8778,0.8706,0.868,0.8616,0.8572,0.8541,0.8598,0.8544,0.8587,0.8646,0.8642,0.8651,0.8659,0.8679,0.8688,0.859,0.8591,0.8591,0,0.9211,0.9171,0.9094,0.9075,0.9045,0.8959,0.8953,0.8913,0.8836,0.8817,0.8787,0.8706,0.8655,0.863,0.8644,0.8622,0.8617,0.8597,0.8656,0.8663,0.8669,0.8688,0.8696,0.8596,0.8596,0.8595,0.8595,0,0.9257,0.923,0.9234,0.9163,0.9134,0.9121,0.9042,0.9021,0.8972,0.892,0.8893,0.8828,0.8774,0.8764,0.8715,0.8732,0.8717,0.8674,0.8621,0.8687,0.8703,0.871,0.8605,0.8602,0.8601,0.8599,0,0,0.9396,0.9284,0.9286,0.9253,0.9172,0.9149,0.9132,0.9081,0.9065,0.9014,0.8997,0.8945,0.8905,0.887,0.8815,0.8812,0.8861,0.8767,0.8764,0.8787,0.8875,0.8909,0.8919,0.8825,0.8826,0.8827,0.8881,0,0.9457,0.9424,0.9354,0.9342,0.9317,0.9234,0.9219,0.9167,0.9118,0.9087,0.9031,0.8997,0.8945,0.8924,0.8917,0.8857,0.8878,0.8852,0.8807,0.8807,0.8827,0.8927,0.8963,0.9017,0.8887,0.8888,0.8888,0,0.9524,0.948,0.9466,0.9387,0.9374,0.9362,0.9309,0.9281,0.922,0.9184,0.9146,0.9086,0.9062,0.9015,0.898,0.8965,0.8942,0.891,0.891,0.8903,0.8852,0.8923,0.9032,0.9041,0.8897,0.8896,0.8896,0,0.9627,0.9564,0.9548,0.9522,0.9429,0.9423,0.9384,0.9321,0.9295,0.9247,0.9229,0.918,0.9152,0.9115,0.9043,0.9015,0.9016,0.8962,0.8985,0.8987,0.8989,0.899,0.9097,0.8974,0.8974,0.8974,0.8974,0,0.9703,0.9698,0.9594,0.9584,0.9575,0.9495,0.9488,0.9441,0.9386,0.9364,0.9289,0.927,0.9176,0.9145,0.9088,0.9068,0.9056,0.9026,0.9011,0.9033,0.9037,0.9017,0.9011,0.8976,0.8976,0.8975,0.8975,0,0.9817,0.9747,0.9724,0.9639,0.9617,0.9615,0.9541,0.9527,0.9473,0.9447,0.9436,0.9351,0.9311,0.9235,0.9174,0.9135,0.9128,0.9101,0.9149,0.914,0.9167,0.9165,0.9265,0.9273,0.9146,0.9148,0.9149,0,0.987,0.9865,0.978,0.9761,0.9725,0.9695,0.9668,0.9588,0.9563,0.9493,0.9488,0.9442,0.9402,0.9342,0.9273,0.9226,0.9198,0.9236,0.919,0.9212,0.9198,0.92,0.9198,0.9246,0.9248,0.925,0.9251,0,0.9972,0.9938,0.9903,0.9856,0.9826,0.9785,0.9739,0.9727,0.9637,0.9612,0.9571,0.954,0.9478,0.9434,0.9376,0.9333,0.9277,0.9266,0.9268,0.9291,0.9319,0.9304,0.9178,0.9264,0.9263,0.9262,0.9261,0.926,1.0057,1.0049,0.9988,0.9951,0.9909,0.9868,0.9851,0.9796,0.9761,0.9706,0.966,0.9624,0.9561,0.9479,0.944,0.9408,0.9381,0.9385,0.9386,0.9388,0.9397,0.9324,0.9397,0.9397,0.9396,0.9396,0.9396,0,1.0155,1.0112,1.0079,1.0019,0.999,0.9941,0.9888,0.9866,0.9836,0.9784,0.9746,0.9699,0.9655,0.9584,0.9534,0.9523,0.9496,0.9512,0.9512,0.9503,0.9424,0.9427,0.9535,0.9535,0.9535,0.9535,0.9535,0.9535,1.0203,1.0186,1.0145,1.0106,1.0061,1.0027,1.0001,0.9962,0.992,0.9872,0.9836,0.9791,0.973,0.9675,0.9633,0.9612,0.9597,0.9623,0.9594,0.9522,0.9509,0.9497,0.9499,0.962,0.962,0.9676,0.9676,0.9677]},{"header":{"parameterUnit":"m.s-1","parameterCategory":1,"la1":30.2991,"la2":30.254,"lo1":-89.0895,"lo2":-89.0444,"dy":0.0017,"dx":0.0017,"nx":28,"ny":28,"refTime":"2024-05-03T21:00:00:Z","depth":0,"parameterNumber":3,"parameterNumberName":"V-component_of_WINDS"},"data":[0,0,0,0,0,0,0,0,0,0,0,0,0,0,0,0,0,0,0,0,0,0,0,0,0,0,0,0,0,0,0,0,0,0,0,0,0,0,0,0,0,0,0,0,0,0,0,0,0,0,0,0,0,0,0,0,0,0,1.4727,1.4729,0,1.4917,1.4919,1.4922,1.5073,1.5074,1.5076,1.5077,1.5272,1.5276,1.5279,0,0,0,0,0,0,0,0,0,0,0,0,0,1.4495,1.4498,1.4727,1.4729,1.4732,1.4917,1.4919,1.4922,1.5073,1.5074,1.5076,1.5078,1.5271,1.5275,1.528,0,0,0,0,0,0,0,0,0,0,0,0,0,1.4631,1.4499,1.4727,1.4829,1.484,1.4916,1.492,1.4923,1.5072,1.5074,1.5077,1.5079,1.5269,1.5275,1.528,1.527,0,0,1.5298,1.53,0,0,0,0,0,0,0,0,1.4623,1.4639,1.4812,1.4822,1.4835,1.4974,1.4909,1.5039,1.5072,1.4984,1.5077,1.508,1.5171,1.5185,1.5215,1.5279,1.5287,1.5298,1.5302,1.5304,1.5306,0,0,0,0,0,0,0,1.4613,1.4632,1.4802,1.4814,1.4828,1.4866,1.4888,1.4934,1.5062,1.4992,1.5003,1.5024,1.5178,1.521,1.5221,1.529,1.5298,1.5303,1.5307,1.5309,1.5355,1.5353,0,0,0,0,0,0,1.4588,1.4623,1.4796,1.4808,1.4732,1.4868,1.4893,1.4927,1.5062,1.5085,1.5022,1.503,1.5199,1.5214,1.5229,1.5225,1.5304,1.5309,1.5313,1.5357,1.5354,1.5352,0,0,0,0,0,0,1.4583,1.4602,1.4789,1.4719,1.4745,1.487,1.4907,1.4929,1.4962,1.5085,1.5108,1.5031,1.5201,1.5221,1.5258,1.5234,1.5312,1.5317,1.5359,1.5356,1.5353,1.5217,0,0,0,0,0,0,1.4575,1.4599,1.4596,1.4718,1.4749,1.4815,1.4905,1.4931,1.4971,1.4984,1.51,1.5121,1.5205,1.5249,1.5264,1.5243,1.5321,1.5362,1.5358,1.5354,1.5224,1.521,1.5197,0,0,0,0,0,1.4566,1.4551,1.4595,1.4616,1.4748,1.4813,1.4831,1.4927,1.4968,1.4966,1.5046,1.5117,1.5234,1.5252,1.527,1.525,1.5364,1.5359,1.5354,1.523,1.5213,1.5197,0,0,0,0,0,0,1.4424,1.4569,1.462,1.4643,1.4714,1.4838,1.4839,1.4905,1.4967,1.4976,1.5093,1.5118,1.5143,1.5201,1.5218,1.5247,1.5308,1.5307,1.5208,1.5192,1.5179,1.5164,1.5326,0,0,0,0,0,1.4395,1.4436,1.456,1.4569,1.4602,1.4714,1.4746,1.4814,1.4893,1.4924,1.5006,1.508,1.5134,1.5166,1.5222,1.5234,1.5261,1.5229,1.5215,1.5204,1.5201,1.521,1.5198,1.5336,1.5336,1.5336,0,0,1.4336,1.442,1.4439,1.4542,1.4606,1.4645,1.4738,1.4776,1.4807,1.493,1.497,1.5033,1.5123,1.5147,1.5162,1.5196,1.5169,1.5197,1.5187,1.5191,1.5204,1.5191,1.5179,1.5332,1.5333,1.5334,0,0,1.4248,1.4316,1.433,1.4392,1.4486,1.4561,1.4564,1.4678,1.4725,1.4767,1.486,1.4898,1.4988,1.5048,1.5091,1.5025,1.5093,1.504,1.4968,1.4977,1.4966,1.4957,1.4932,1.4922,1.5037,1.5037,1.5037,0,1.4162,1.4226,1.4329,1.4361,1.4404,1.4517,1.4532,1.4587,1.4695,1.4721,1.4758,1.4873,1.4942,1.4981,1.4965,1.4996,1.5003,1.5027,1.4959,1.4951,1.4944,1.4922,1.4913,1.503,1.503,1.5031,1.5032,0,1.4115,1.4158,1.4158,1.4259,1.4302,1.4325,1.4432,1.4463,1.4527,1.4597,1.4639,1.4725,1.4801,1.4815,1.4879,1.4864,1.4882,1.4937,1.5001,1.4922,1.4903,1.4896,1.5019,1.5022,1.5024,1.5026,0,0,1.3943,1.41,1.4098,1.4145,1.4258,1.4293,1.4321,1.4395,1.4419,1.449,1.4516,1.4589,1.4641,1.4689,1.476,1.4767,1.4709,1.4822,1.4826,1.4797,1.4697,1.4654,1.4643,1.4755,1.4754,1.4753,1.4689,0,1.3872,1.3929,1.4023,1.4049,1.4089,1.4197,1.4222,1.4294,1.436,1.4404,1.4479,1.4528,1.4593,1.4623,1.4635,1.4713,1.469,1.4719,1.478,1.4781,1.4753,1.4634,1.4588,1.4524,1.4683,1.4682,1.4681,0,1.3797,1.3861,1.3891,1.4001,1.4021,1.4042,1.4116,1.4157,1.4241,1.4289,1.4341,1.4419,1.4455,1.4513,1.4564,1.4581,1.4612,1.4654,1.4654,1.4663,1.4725,1.4638,1.4506,1.4495,1.4671,1.4672,1.4672,0,1.3667,1.3761,1.3791,1.3828,1.3957,1.3968,1.4022,1.4108,1.4146,1.4212,1.4238,1.4306,1.4343,1.4395,1.4488,1.4523,1.4528,1.4595,1.4569,1.4566,1.4565,1.4563,1.4434,1.4585,1.4585,1.4586,1.4586,0,1.3578,1.3591,1.3734,1.3752,1.3771,1.3879,1.3894,1.3959,1.4034,1.4067,1.4165,1.4193,1.4316,1.4359,1.4433,1.4463,1.4479,1.4519,1.4538,1.451,1.4504,1.4531,1.4537,1.4583,1.4584,1.4584,1.4585,0,1.3435,1.3531,1.357,1.3689,1.3719,1.3727,1.3829,1.3851,1.3923,1.3963,1.3979,1.4093,1.4148,1.4247,1.4331,1.4381,1.4396,1.443,1.4367,1.4379,1.4347,1.4348,1.423,1.422,1.4376,1.4375,1.4374,0,1.3371,1.3384,1.3504,1.3532,1.3583,1.3628,1.3667,1.3774,1.3811,1.3907,1.3916,1.398,1.4036,1.412,1.421,1.4275,1.431,1.4264,1.4321,1.4291,1.4309,1.4306,1.4308,1.4251,1.4249,1.4247,1.4245,0,1.3247,1.3294,1.3346,1.3415,1.3459,1.3518,1.3583,1.3601,1.3722,1.3759,1.3816,1.386,1.3945,1.4007,1.4084,1.4141,1.4213,1.4227,1.4225,1.4195,1.4158,1.4176,1.4331,1.4229,1.4231,1.4232,1.4233,1.4234,1.3142,1.3158,1.3244,1.3299,1.3359,1.3417,1.3443,1.3519,1.3569,1.3646,1.3707,1.3759,1.3843,1.3955,1.4007,1.405,1.4084,1.408,1.4079,1.4076,1.4064,1.4151,1.4065,1.4065,1.4066,1.4066,1.4067,0,1.3022,1.3083,1.3132,1.3219,1.3262,1.3327,1.3402,1.3433,1.3478,1.355,1.3603,1.3669,1.373,1.3824,1.3892,1.3908,1.3943,1.3922,1.3922,1.3933,1.4031,1.4026,1.3893,1.3893,1.3893,1.3893,1.3893,1.3893,1.2965,1.2995,1.3052,1.3114,1.3175,1.3227,1.3264,1.3318,1.3376,1.3445,1.3495,1.3557,1.3638,1.3712,1.377,1.3797,1.3817,1.3785,1.3821,1.391,1.3926,1.3942,1.3938,1.3789,1.3789,1.3721,1.372,1.372]}]]